Zurück zum Katalog

ATLAS 5 CENTAUR DEB

AktivHEO
NORAD 44661·DEBRIS·🇺🇸 United States

Gestartet Oct 17, 2018 von Cape Canaveral Space Force Station

Loading…

Nächste Überflüge (nächste 24 Stunden)

TLE

AktuellSource: Space-Track

Epoche: Sep 14, 2026, 13:05 UTC

1 44661U 18079X   26257.54580901 -.00000153  00000-0  00000-0 0  9990
2 44661  13.1367  54.9740 4624337 272.4019  37.4017  1.72652615 50144

Verfolge ATLAS 5 CENTAUR DEB in Echtzeit mit AllMySat

Download on the App Store